owner,sensor,date,latitude,longitude,vertical_datum,wind_speed,wind_to_direction,wind_speed_of_gust,qcFlag 
TABS,ioos:station:wmo:42047:1,2007-05-01T00:09:00Z,27.8966,-93.5973,4.0,4.171450587,141.6193535,8.01,'11111222,11111222,11111222' 
TABS,ioos:station:wmo:42047:1,2007-05-01T00:39:00Z,27.8966,-93.5973,4.0,2.951694429,153.869271,5.97,'11111222,11111222,11111222' 
TABS,ioos:station:wmo:42047:1,2007-05-01T01:09:00Z,27.8966,-93.5973,4.0,2.535764185,153.031026,5.86,'11111222,11111222,11111222' 
TABS,ioos:station:wmo:42047:1,2007-05-01T01:39:00Z,27.8966,-93.5973,4.0,1.663850955,154.3592646,5.04,'11111222,11111222,11111222' 
TABS,ioos:station:wmo:42047:1,2007-05-01T02:09:00Z,27.8966,-93.5973,4.0,1.424148869,167.4277949,4.44,'11111222,11111222,11111222' 
TABS,ioos:station:wmo:42047:1,2007-05-01T02:39:00Z,27.8966,-93.5973,4.0,1.269212354,163.9928436,5.19,'11111222,11111222,11111222' 
TABS,ioos:station:wmo:42047:1,2007-05-01T03:09:00Z,27.8966,-93.5973,4.0,0.483735465,150.2553987,5.14,'11111222,11111222,11111222' 
TABS,ioos:station:wmo:42047:1,2007-05-01T03:39:00Z,27.8966,-93.5973,4.0,1.115168149,147.4502831,4.67,'11111222,11111222,11111222' 
TABS,ioos:station:wmo:42047:1,2007-05-01T04:09:00Z,27.8966,-93.5973,4.0,0.664906008,167.8452972,3.38,'11111222,11111222,11111222' 
TABS,ioos:station:wmo:42047:1,2007-05-01T04:39:00Z,27.8966,-93.5973,4.0,1.3809055,177.9251889,3.82,'11111222,11111222,11111222' 
TABS,ioos:station:wmo:42047:1,2007-05-01T05:09:00Z,27.8966,-93.5973,4.0,2.312249986,162.8975215,6.02,'11111222,11111222,11111222' 
TABS,ioos:station:wmo:42047:1,2007-05-01T05:39:00Z,27.8966,-93.5973,4.0,2.42705583,157.9796654,5.19,'11111222,11111222,11111222' 
TABS,ioos:station:wmo:42047:1,2007-05-01T06:09:00Z,27.8966,-93.5973,4.0,2.407509086,155.457833,5.66,'11111222,11111222,11111222' 
TABS,ioos:station:wmo:42047:1,2007-05-01T06:39:00Z,27.8966,-93.5973,4.0,2.74810844,161.1037848,5.98,'11111222,11111222,11111222' 
TABS,ioos:station:wmo:42047:1,2007-05-01T07:09:00Z,27.8966,-93.5973,4.0,2.954386569,160.215978,5.57,'11111222,11111222,11111222' 
TABS,ioos:station:wmo:42047:1,2007-05-01T07:39:00Z,27.8966,-93.5973,4.0,3.092329219,157.1666097,6.32,'11111222,11111222,11111222' 
TABS,ioos:station:wmo:42047:1,2007-05-01T08:09:00Z,27.8966,-93.5973,4.0,2.683281573,169.6953881,5.48,'11111222,11111222,11111222' 
TABS,ioos:station:wmo:42047:1,2007-05-01T08:39:00Z,27.8966,-93.5973,4.0,3.059493422,159.7291549,5.73,'11111222,11111222,11111222' 
TABS,ioos:station:wmo:42047:1,2007-05-01T09:09:00Z,27.8966,-93.5973,4.0,3.092733419,161.330968,5.87,'11111222,11111222,11111222' 
TABS,ioos:station:wmo:42047:1,2007-05-01T09:39:00Z,27.8966,-93.5973,4.0,4.078884651,154.1262538,7.01,'11111222,11111222,11111222' 
TABS,ioos:station:wmo:42047:1,2007-05-01T10:09:00Z,27.8966,-93.5973,4.0,4.360389891,153.1414002,7.5,'11111222,11111222,11111222' 
TABS,ioos:station:wmo:42047:1,2007-05-01T10:39:00Z,27.8966,-93.5973,4.0,4.338490521,154.3211659,7.8,'11111222,11111222,11111222' 
TABS,ioos:station:wmo:42047:1,2007-05-01T11:09:00Z,27.8966,-93.5973,4.0,5.040009921,151.04505,8.63,'11111222,11111222,11111222' 
TABS,ioos:station:wmo:42047:1,2007-05-01T11:39:00Z,27.8966,-93.5973,4.0,4.478894953,156.5833101,8.75,'11111222,11111222,11111222' 
TABS,ioos:station:wmo:42047:1,2007-05-01T12:09:00Z,27.8966,-93.5973,4.0,5.161472658,152.541601,8.81,'11111222,11111222,11111222' 
TABS,ioos:station:wmo:42047:1,2007-05-01T12:39:00Z,27.8966,-93.5973,4.0,4.79654042,151.6186177,8.28,'11111222,11111222,11111222' 
TABS,ioos:station:wmo:42047:1,2007-05-01T13:09:00Z,27.8966,-93.5973,4.0,4.970734352,155.136572,8.37,'11111222,11111222,11111222' 
TABS,ioos:station:wmo:42047:1,2007-05-01T13:39:00Z,27.8966,-93.5973,4.0,4.883943079,157.7413679,8.1,'11111222,11111222,11111222' 
TABS,ioos:station:wmo:42047:1,2007-05-01T14:09:00Z,27.8966,-93.5973,4.0,4.6674297,150.1944945,7.93,'11111222,11111222,11111222' 
TABS,ioos:station:wmo:42047:1,2007-05-01T14:39:00Z,27.8966,-93.5973,4.0,4.154732242,153.866935,8.07,'11111222,11111222,11111222' 
TABS,ioos:station:wmo:42047:1,2007-05-01T15:09:00Z,27.8966,-93.5973,4.0,4.431624984,157.0223674,8.17,'11111222,11111222,11111222' 
TABS,ioos:station:wmo:42047:1,2007-05-01T15:39:00Z,27.8966,-93.5973,4.0,4.597434067,153.1008148,7.84,'11111222,11111222,11111222' 
TABS,ioos:station:wmo:42047:1,2007-05-01T16:09:00Z,27.8966,-93.5973,4.0,3.739157659,154.3261106,7.04,'11111222,11111222,11111222' 
TABS,ioos:station:wmo:42047:1,2007-05-01T16:39:00Z,27.8966,-93.5973,4.0,4.204818664,150.5089176,7.48,'11111222,11111222,11111222' 
TABS,ioos:station:wmo:42047:1,2007-05-01T17:09:00Z,27.8966,-93.5973,4.0,3.784190799,152.2840454,6.85,'11111222,11111222,11111222' 
TABS,ioos:station:wmo:42047:1,2007-05-01T17:39:00Z,27.8966,-93.5973,4.0,3.685213698,152.8789705,8.13,'11111222,11111222,11111222' 
TABS,ioos:station:wmo:42047:1,2007-05-01T18:09:00Z,27.8966,-93.5973,4.0,4.210142515,155.1395836,7.49,'11111222,11111222,11111222' 
TABS,ioos:station:wmo:42047:1,2007-05-01T18:39:00Z,27.8966,-93.5973,4.0,4.288507899,144.012212,7.14,'11111222,11111222,11111222' 
TABS,ioos:station:wmo:42047:1,2007-05-01T19:09:00Z,27.8966,-93.5973,4.0,4.19305378,144.4149621,7.06,'11111222,11111222,11111222' 
TABS,ioos:station:wmo:42047:1,2007-05-01T19:39:00Z,27.8966,-93.5973,4.0,3.962133264,141.2501566,7.19,'11111222,11111222,11111222' 
TABS,ioos:station:wmo:42047:1,2007-05-01T20:09:00Z,27.8966,-93.5973,4.0,4.10761488,139.6410823,7.05,'11111222,11111222,11111222' 
TABS,ioos:station:wmo:42047:1,2007-05-01T20:39:00Z,27.8966,-93.5973,4.0,4.491647805,139.7864181,7.58,'11111222,11111222,11111222' 
TABS,ioos:station:wmo:42047:1,2007-05-01T21:09:00Z,27.8966,-93.5973,4.0,4.398192811,140.628403,7.38,'11111222,11111222,11111222' 
TABS,ioos:station:wmo:42047:1,2007-05-01T21:39:00Z,27.8966,-93.5973,4.0,4.302150625,142.6509488,7.32,'11111222,11111222,11111222' 
TABS,ioos:station:wmo:42047:1,2007-05-01T22:09:00Z,27.8966,-93.5973,4.0,4.82994824,138.1894441,8.31,'11111222,11111222,11111222' 
TABS,ioos:station:wmo:42047:1,2007-05-01T22:39:00Z,27.8966,-93.5973,4.0,5.093181717,138.4228216,8.33,'11111222,11111222,11111222' 
TABS,ioos:station:wmo:42047:1,2007-05-01T23:09:00Z,27.8966,-93.5973,4.0,4.495386524,140.3252834,7.94,'11111222,11111222,11111222' 
TABS,ioos:station:wmo:42047:1,2007-05-01T23:39:00Z,27.8966,-93.5973,4.0,4.815495821,140.3927756,11.07,'11111222,11111222,11111222' 
TABS,ioos:station:wmo:42047:1,2007-05-02T00:09:00Z,27.8966,-93.5973,4.0,4.95800363,143.1997362,8.97,'11111222,11111222,11111222' 
TABS,ioos:station:wmo:42047:1,2007-05-02T00:39:00Z,27.8966,-93.5973,4.0,4.95800363,143.1997362,9.46,'11111222,11111222,11111222' 
TABS,ioos:station:wmo:42047:1,2007-05-02T01:09:00Z,27.8966,-93.5973,4.0,5.142859127,144.177694,8.6,'11111222,11111222,11111222' 
TABS,ioos:station:wmo:42047:1,2007-05-02T01:39:00Z,27.8966,-93.5973,4.0,4.759873948,145.4421723,8.66,'11111222,11111222,11111222' 
TABS,ioos:station:wmo:42047:1,2007-05-02T02:09:00Z,27.8966,-93.5973,4.0,4.533486517,150.0986395,8.58,'11111222,11111222,11111222' 
TABS,ioos:station:wmo:42047:1,2007-05-02T02:39:00Z,27.8966,-93.5973,4.0,4.851082353,145.7533347,8.73,'11111222,11111222,11111222' 
TABS,ioos:station:wmo:42047:1,2007-05-02T09:39:00Z,27.8966,-93.5973,4.0,3.192303244,174.968288,6.61,'11111222,11111222,11111222' 
TABS,ioos:station:wmo:42047:1,2007-05-02T10:09:00Z,27.8966,-93.5973,4.0,2.903876719,182.9611397,5.89,'11111222,11111222,11111222' 
TABS,ioos:station:wmo:42047:1,2007-05-02T10:39:00Z,27.8966,-93.5973,4.0,2.79,180.0002105,5.41,'11111222,11111222,11111222' 
TABS,ioos:station:wmo:42047:1,2007-05-02T11:09:00Z,27.8966,-93.5973,4.0,2.723416971,174.3105644,5.64,'11111222,11111222,11111222' 
TABS,ioos:station:wmo:42047:1,2007-05-02T11:39:00Z,27.8966,-93.5973,4.0,2.443685741,169.1501312,5.41,'11111222,11111222,11111222' 
TABS,ioos:station:wmo:42047:1,2007-05-02T12:09:00Z,27.8966,-93.5973,4.0,2.462600252,159.0629741,5.47,'11111222,11111222,11111222' 
TABS,ioos:station:wmo:42047:1,2007-05-02T12:39:00Z,27.8966,-93.5973,4.0,2.482136177,153.9513844,5.13,'11111222,11111222,11111222' 
TABS,ioos:station:wmo:42047:1,2007-05-02T13:09:00Z,27.8966,-93.5973,4.0,2.155574169,153.5540919,5.75,'11111222,11111222,11111222' 
TABS,ioos:station:wmo:42047:1,2007-05-02T13:39:00Z,27.8966,-93.5973,4.0,3.171277345,144.7566524,6.23,'11111222,11111222,11111222' 
TABS,ioos:station:wmo:42047:1,2007-05-02T14:09:00Z,27.8966,-93.5973,4.0,2.585362644,152.3449515,5.77,'11111222,11111222,11111222' 
TABS,ioos:station:wmo:42047:1,2007-05-02T14:39:00Z,27.8966,-93.5973,4.0,3.928676622,155.3269866,7.19,'11111222,11111222,11111222' 
TABS,ioos:station:wmo:42047:1,2007-05-02T15:09:00Z,27.8966,-93.5973,4.0,3.801315562,153.4352214,7.27,'11111222,11111222,11111222' 
TABS,ioos:station:wmo:42047:1,2007-05-02T15:39:00Z,27.8966,-93.5973,4.0,3.537527385,158.4394622,7.07,'11111222,11111222,11111222' 
TABS,ioos:station:wmo:42047:1,2007-05-02T16:09:00Z,27.8966,-93.5973,4.0,3.848869964,148.1684769,7.0,'11111222,11111222,11111222' 
TABS,ioos:station:wmo:42047:1,2007-05-02T16:39:00Z,27.8966,-93.5973,4.0,3.931539139,147.8867681,8.16,'11111222,11111222,11111222' 
TABS,ioos:station:wmo:42047:1,2007-05-02T17:09:00Z,27.8966,-93.5973,4.0,4.021256023,152.2881871,6.79,'11111222,11111222,11111222' 
TABS,ioos:station:wmo:42047:1,2007-05-02T17:39:00Z,27.8966,-93.5973,4.0,3.576436774,147.9099946,7.14,'11111222,11111222,11111222' 
TABS,ioos:station:wmo:42047:1,2007-05-02T18:09:00Z,27.8966,-93.5973,4.0,3.397793402,147.011766,6.42,'11111222,11111222,11111222' 
TABS,ioos:station:wmo:42047:1,2007-05-02T18:39:00Z,27.8966,-93.5973,4.0,2.804086304,142.6808704,5.67,'11111222,11111222,11111222' 
TABS,ioos:station:wmo:42047:1,2007-05-02T19:09:00Z,27.8966,-93.5973,4.0,2.927729496,134.1700021,5.57,'11111222,11111222,11111222' 
TABS,ioos:station:wmo:42047:1,2007-05-02T19:39:00Z,27.8966,-93.5973,4.0,2.49729854,133.2154765,4.75,'11111222,11111222,11111222' 
TABS,ioos:station:wmo:42047:1,2007-05-02T20:09:00Z,27.8966,-93.5973,4.0,2.699036865,129.5884592,5.43,'11111222,11111222,11111222' 
TABS,ioos:station:wmo:42047:1,2007-05-02T20:39:00Z,27.8966,-93.5973,4.0,2.743884108,118.9941122,5.32,'11111222,11111222,11111222' 
TABS,ioos:station:wmo:42047:1,2007-05-02T21:09:00Z,27.8966,-93.5973,4.0,3.078262497,118.3137168,6.45,'11111222,11111222,11111222' 
TABS,ioos:station:wmo:42047:1,2007-05-02T21:39:00Z,27.8966,-93.5973,4.0,3.173452379,128.6037454,6.38,'11111222,11111222,11111222' 
TABS,ioos:station:wmo:42047:1,2007-05-02T22:09:00Z,27.8966,-93.5973,4.0,3.282834141,121.8022261,5.89,'11111222,11111222,11111222' 
TABS,ioos:station:wmo:42047:1,2007-05-02T22:39:00Z,27.8966,-93.5973,4.0,3.72613741,126.3781723,6.41,'11111222,11111222,11111222' 
TABS,ioos:station:wmo:42047:1,2007-05-02T23:09:00Z,27.8966,-93.5973,4.0,3.987793876,120.1016551,6.99,'11111222,11111222,11111222' 
TABS,ioos:station:wmo:42047:1,2007-05-02T23:39:00Z,27.8966,-93.5973,4.0,3.927301873,123.892724,7.91,'11111222,11111222,11111222' 
TABS,ioos:station:wmo:42047:1,2007-05-03T00:09:00Z,27.8966,-93.5973,4.0,3.893712881,129.3725629,7.45,'11111222,11111222,11111222' 
TABS,ioos:station:wmo:42047:1,2007-05-03T00:39:00Z,27.8966,-93.5973,4.0,4.127529527,132.1526222,8.4,'11111222,11111222,11111222' 
TABS,ioos:station:wmo:42047:1,2007-05-03T01:09:00Z,27.8966,-93.5973,4.0,4.127529527,132.1526222,7.8,'11111222,11111222,11111222' 
TABS,ioos:station:wmo:42047:1,2007-05-03T01:39:00Z,27.8966,-93.5973,4.0,4.228001892,139.6047921,7.59,'11111222,11111222,11111222' 
TABS,ioos:station:wmo:42047:1,2007-05-03T02:09:00Z,27.8966,-93.5973,4.0,3.651684543,140.5563411,6.92,'11111222,11111222,11111222' 
TABS,ioos:station:wmo:42047:1,2007-05-03T02:39:00Z,27.8966,-93.5973,4.0,3.947163539,145.4244847,7.97,'11111222,11111222,11111222' 
TABS,ioos:station:wmo:42047:1,2007-05-03T03:09:00Z,27.8966,-93.5973,4.0,3.774930463,152.5527753,7.25,'11111222,11111222,11111222' 
TABS,ioos:station:wmo:42047:1,2007-05-03T03:39:00Z,27.8966,-93.5973,4.0,4.006557126,155.9942177,7.52,'11111222,11111222,11111222' 
TABS,ioos:station:wmo:42047:1,2007-05-03T04:09:00Z,27.8966,-93.5973,4.0,4.581877344,146.0327631,8.32,'11111222,11111222,11111222' 
TABS,ioos:station:wmo:42047:1,2007-05-03T04:39:00Z,27.8966,-93.5973,4.0,4.321874593,148.6272787,8.62,'11111222,11111222,11111222' 
TABS,ioos:station:wmo:42047:1,2007-05-03T05:09:00Z,27.8966,-93.5973,4.0,4.983753605,148.9576611,9.33,'11111222,11111222,11111222' 
TABS,ioos:station:wmo:42047:1,2007-05-03T05:39:00Z,27.8966,-93.5973,4.0,3.97959797,160.0171507,7.59,'11111222,11111222,11111222' 
TABS,ioos:station:wmo:42047:1,2007-05-03T06:09:00Z,27.8966,-93.5973,4.0,3.544009029,159.519901,7.18,'11111222,11111222,11111222' 
TABS,ioos:station:wmo:42047:1,2007-05-03T06:39:00Z,27.8966,-93.5973,4.0,3.820366475,162.3241431,7.67,'11111222,11111222,11111222' 
TABS,ioos:station:wmo:42047:1,2007-05-03T07:09:00Z,27.8966,-93.5973,4.0,3.163621343,171.6396139,6.86,'11111222,11111222,11111222' 
TABS,ioos:station:wmo:42047:1,2007-05-03T07:39:00Z,27.8966,-93.5973,4.0,3.504639782,168.9788643,7.0,'11111222,11111222,11111222' 
TABS,ioos:station:wmo:42047:1,2007-05-03T08:09:00Z,27.8966,-93.5973,4.0,2.402998127,182.862609,6.63,'11111222,11111222,11111222' 
TABS,ioos:station:wmo:42047:1,2007-05-03T08:39:00Z,27.8966,-93.5973,4.0,0.764852927,205.5601159,5.58,'11111222,11111222,11111222' 
TABS,ioos:station:wmo:42047:1,2007-05-03T09:09:00Z,27.8966,-93.5973,4.0,1.793599732,260.6952494,5.26,'11111222,11111222,11111222' 
TABS,ioos:station:wmo:42047:1,2007-05-03T09:39:00Z,27.8966,-93.5973,4.0,1.795243716,279.6197053,5.1,'11111222,11111222,11111222' 
TABS,ioos:station:wmo:42047:1,2007-05-03T10:09:00Z,27.8966,-93.5973,4.0,2.540314941,291.717593,4.99,'11111222,11111222,11111222' 
TABS,ioos:station:wmo:42047:1,2007-05-03T10:39:00Z,27.8966,-93.5973,4.0,1.714205355,265.9858337,5.1,'11111222,11111222,11111222' 
TABS,ioos:station:wmo:42047:1,2007-05-03T11:09:00Z,27.8966,-93.5973,4.0,1.559262646,289.4807547,5.51,'11111222,11111222,11111222' 
TABS,ioos:station:wmo:42047:1,2007-05-03T11:39:00Z,27.8966,-93.5973,4.0,0.993176721,334.9829546,4.59,'11111222,11111222,11111222' 
TABS,ioos:station:wmo:42047:1,2007-05-03T12:09:00Z,27.8966,-93.5973,4.0,1.181397478,136.7152419,5.11,'11111222,11111222,11111222' 
TABS,ioos:station:wmo:42047:1,2007-05-03T12:39:00Z,27.8966,-93.5973,4.0,3.667492331,156.370888,6.8,'11111222,11111222,11111222' 
TABS,ioos:station:wmo:42047:1,2007-05-03T13:09:00Z,27.8966,-93.5973,4.0,5.444501814,190.6909513,13.51,'11111222,11111222,11111222' 
TABS,ioos:station:wmo:42047:1,2007-05-03T13:39:00Z,27.8966,-93.5973,4.0,5.193534442,192.0024773,9.43,'11111222,11111222,11111222' 
TABS,ioos:station:wmo:42047:1,2007-05-03T14:09:00Z,27.8966,-93.5973,4.0,9.43835261,170.9171479,15.81,'11111222,11111222,11111222' 
TABS,ioos:station:wmo:42047:1,2007-05-03T14:39:00Z,27.8966,-93.5973,4.0,8.582633628,151.4644075,13.04,'11111222,11111222,11111222' 
TABS,ioos:station:wmo:42047:1,2007-05-03T15:09:00Z,27.8966,-93.5973,4.0,6.097843881,159.4552106,10.58,'11111222,11111222,11111222' 
TABS,ioos:station:wmo:42047:1,2007-05-03T15:39:00Z,27.8966,-93.5973,4.0,3.548196725,169.6087298,7.14,'11111222,11111222,11111222' 
TABS,ioos:station:wmo:42047:1,2007-05-03T16:09:00Z,27.8966,-93.5973,4.0,1.970634416,178.5463184,6.83,'11111222,11111222,11111222' 
TABS,ioos:station:wmo:42047:1,2007-05-03T16:39:00Z,27.8966,-93.5973,4.0,3.202577087,168.6552183,6.76,'11111222,11111222,11111222' 
TABS,ioos:station:wmo:42047:1,2007-05-03T17:09:00Z,27.8966,-93.5973,4.0,2.025487596,172.9102969,6.12,'11111222,11111222,11111222' 
TABS,ioos:station:wmo:42047:1,2007-05-03T17:39:00Z,27.8966,-93.5973,4.0,2.402602755,192.0116608,5.89,'11111222,11111222,11111222' 
TABS,ioos:station:wmo:42047:1,2007-05-03T18:09:00Z,27.8966,-93.5973,4.0,1.701352403,198.8610983,7.44,'11111222,11111222,11111222' 
TABS,ioos:station:wmo:42047:1,2007-05-03T18:39:00Z,27.8966,-93.5973,4.0,2.254351348,183.5606827,5.89,'11111222,11111222,11111222' 
TABS,ioos:station:wmo:42047:1,2007-05-03T19:09:00Z,27.8966,-93.5973,4.0,1.962549362,182.9209251,6.08,'11111222,11111222,11111222' 
TABS,ioos:station:wmo:42047:1,2007-05-03T19:39:00Z,27.8966,-93.5973,4.0,1.959311103,159.067724,4.98,'11111222,11111222,11111222' 
TABS,ioos:station:wmo:42047:1,2007-05-03T20:09:00Z,27.8966,-93.5973,4.0,0.895377016,159.7437957,5.54,'11111222,11111222,11111222' 
TABS,ioos:station:wmo:42047:1,2007-05-03T20:39:00Z,27.8966,-93.5973,4.0,0.785493475,148.5361404,3.76,'11111222,11111222,11111222' 
TABS,ioos:station:wmo:42047:1,2007-05-03T21:09:00Z,27.8966,-93.5973,4.0,0.855102333,100.7846936,4.58,'11111222,11111222,11111222' 
TABS,ioos:station:wmo:42047:1,2007-05-03T21:39:00Z,27.8966,-93.5973,4.0,0.89,115.9895937,4.57,'11111222,11111222,11111222' 
TABS,ioos:station:wmo:42047:1,2007-05-03T22:09:00Z,27.8966,-93.5973,4.0,0.514295635,116.56541,4.44,'11111222,11111222,11111222' 
TABS,ioos:station:wmo:42047:1,2007-05-03T22:39:00Z,27.8966,-93.5973,4.0,1.083743512,131.6338629,4.54,'11111222,11111222,11111222' 
TABS,ioos:station:wmo:42047:1,2007-05-03T23:09:00Z,27.8966,-93.5973,4.0,0.956033472,142.6509488,4.0,'11111222,11111222,11111222' 
TABS,ioos:station:wmo:42047:1,2007-05-03T23:39:00Z,27.8966,-93.5973,4.0,1.872565086,141.7227765,4.81,'11111222,11111222,11111222' 
TABS,ioos:station:wmo:42047:1,2007-05-04T00:09:00Z,27.8966,-93.5973,4.0,2.214339631,148.1046112,5.31,'11111222,11111222,11111222' 
TABS,ioos:station:wmo:42047:1,2007-05-04T00:39:00Z,27.8966,-93.5973,4.0,2.930273025,142.3482545,6.24,'11111222,11111222,11111222' 
TABS,ioos:station:wmo:42047:1,2007-05-04T01:09:00Z,27.8966,-93.5973,4.0,2.304105032,142.5833218,6.78,'11111222,11111222,11111222' 
TABS,ioos:station:wmo:42047:1,2007-05-04T01:39:00Z,27.8966,-93.5973,4.0,2.43846263,157.3261754,5.56,'11111222,11111222,11111222' 
TABS,ioos:station:wmo:42047:1,2007-05-04T02:09:00Z,27.8966,-93.5973,4.0,2.343501654,164.6593556,5.84,'11111222,11111222,11111222' 
TABS,ioos:station:wmo:42047:1,2007-05-04T02:39:00Z,27.8966,-93.5973,4.0,1.84945938,168.1434909,4.76,'11111222,11111222,11111222' 
TABS,ioos:station:wmo:42047:1,2007-05-04T03:09:00Z,27.8966,-93.5973,4.0,1.669281282,167.5458903,4.82,'11111222,11111222,11111222' 
TABS,ioos:station:wmo:42047:1,2007-05-04T03:39:00Z,27.8966,-93.5973,4.0,1.353403118,165.4506117,4.89,'11111222,11111222,11111222' 
TABS,ioos:station:wmo:42047:1,2007-05-04T04:09:00Z,27.8966,-93.5973,4.0,2.085041966,173.1137992,4.79,'11111222,11111222,11111222' 
TABS,ioos:station:wmo:42047:1,2007-05-04T04:39:00Z,27.8966,-93.5973,4.0,1.872671888,183.0612331,6.04,'11111222,11111222,11111222' 
TABS,ioos:station:wmo:42047:1,2007-05-04T05:09:00Z,27.8966,-93.5973,4.0,2.283155711,183.0129909,5.36,'11111222,11111222,11111222' 
TABS,ioos:station:wmo:42047:1,2007-05-04T05:39:00Z,27.8966,-93.5973,4.0,2.430905181,174.5710642,5.71,'11111222,11111222,11111222' 
TABS,ioos:station:wmo:42047:1,2007-05-04T06:09:00Z,27.8966,-93.5973,4.0,2.022003956,173.7539094,5.45,'11111222,11111222,11111222' 
TABS,ioos:station:wmo:42047:1,2007-05-04T06:39:00Z,27.8966,-93.5973,4.0,1.991230775,182.0148045,4.98,'11111222,11111222,11111222' 
TABS,ioos:station:wmo:42047:1,2007-05-04T07:09:00Z,27.8966,-93.5973,4.0,2.080024038,179.7247527,7.95,'11111222,11111222,11111222' 
TABS,ioos:station:wmo:42047:1,2007-05-04T07:39:00Z,27.8966,-93.5973,4.0,2.47396443,176.756155,5.15,'11111222,11111222,11111222' 
TABS,ioos:station:wmo:42047:1,2007-05-04T08:09:00Z,27.8966,-93.5973,4.0,1.910104709,179.400278,5.1,'11111222,11111222,11111222' 
TABS,ioos:station:wmo:42047:1,2007-05-04T08:39:00Z,27.8966,-93.5973,4.0,1.760255663,179.0236747,5.64,'11111222,11111222,11111222' 
TABS,ioos:station:wmo:42047:1,2007-05-04T09:09:00Z,27.8966,-93.5973,4.0,2.110023697,179.7286691,4.75,'11111222,11111222,11111222' 
TABS,ioos:station:wmo:42047:1,2007-05-04T09:39:00Z,27.8966,-93.5973,4.0,2.125770449,171.0696412,5.68,'11111222,11111222,11111222' 
TABS,ioos:station:wmo:42047:1,2007-05-04T10:09:00Z,27.8966,-93.5973,4.0,2.560956852,178.4339229,5.83,'11111222,11111222,11111222' 
TABS,ioos:station:wmo:42047:1,2007-05-04T10:39:00Z,27.8966,-93.5973,4.0,2.562654873,172.3760358,5.73,'11111222,11111222,11111222' 
TABS,ioos:station:wmo:42047:1,2007-05-04T11:09:00Z,27.8966,-93.5973,4.0,2.910429522,168.304221,6.06,'11111222,11111222,11111222' 
TABS,ioos:station:wmo:42047:1,2007-05-04T11:39:00Z,27.8966,-93.5973,4.0,3.236495018,163.3010053,6.47,'11111222,11111222,11111222' 
TABS,ioos:station:wmo:42047:1,2007-05-04T12:09:00Z,27.8966,-93.5973,4.0,3.612658301,164.4251988,7.91,'11111222,11111222,11111222' 
TABS,ioos:station:wmo:42047:1,2007-05-04T12:39:00Z,27.8966,-93.5973,4.0,3.007607022,165.3633417,6.23,'11111222,11111222,11111222' 
TABS,ioos:station:wmo:42047:1,2007-05-04T13:09:00Z,27.8966,-93.5973,4.0,3.084493475,171.4235401,5.83,'11111222,11111222,11111222' 
TABS,ioos:station:wmo:42047:1,2007-05-04T13:39:00Z,27.8966,-93.5973,4.0,2.895047495,172.4578977,6.51,'11111222,11111222,11111222' 
TABS,ioos:station:wmo:42047:1,2007-05-04T14:09:00Z,27.8966,-93.5973,4.0,2.525569243,173.6349808,7.94,'11111222,11111222,11111222' 
TABS,ioos:station:wmo:42047:1,2007-05-04T14:39:00Z,27.8966,-93.5973,4.0,2.432056743,182.3567263,6.68,'11111222,11111222,11111222' 
TABS,ioos:station:wmo:42047:1,2007-05-04T15:09:00Z,27.8966,-93.5973,4.0,3.029884486,170.6933512,5.64,'11111222,11111222,11111222' 
TABS,ioos:station:wmo:42047:1,2007-05-04T15:39:00Z,27.8966,-93.5973,4.0,2.768122107,163.201878,5.56,'11111222,11111222,11111222' 
TABS,ioos:station:wmo:42047:1,2007-05-04T16:09:00Z,27.8966,-93.5973,4.0,2.469534369,172.7888789,6.0,'11111222,11111222,11111222' 
TABS,ioos:station:wmo:42047:1,2007-05-04T16:39:00Z,27.8966,-93.5973,4.0,2.463432565,183.0252153,6.48,'11111222,11111222,11111222' 
TABS,ioos:station:wmo:42047:1,2007-05-04T17:09:00Z,27.8966,-93.5973,4.0,1.897630101,174.8604651,4.46,'11111222,11111222,11111222' 
TABS,ioos:station:wmo:42047:1,2007-05-04T17:39:00Z,27.8966,-93.5973,4.0,1.809364529,162.9673658,5.95,'11111222,11111222,11111222' 
TABS,ioos:station:wmo:42047:1,2007-05-04T18:09:00Z,27.8966,-93.5973,4.0,1.790781952,167.7490587,5.48,'11111222,11111222,11111222' 
TABS,ioos:station:wmo:42047:1,2007-05-04T18:39:00Z,27.8966,-93.5973,4.0,1.990602924,154.7225473,4.89,'11111222,11111222,11111222' 
TABS,ioos:station:wmo:42047:1,2007-05-04T19:09:00Z,27.8966,-93.5973,4.0,1.993238571,156.6506979,4.47,'11111222,11111222,11111222' 
TABS,ioos:station:wmo:42047:1,2007-05-04T19:39:00Z,27.8966,-93.5973,4.0,1.985648509,153.6933081,4.71,'11111222,11111222,11111222' 
TABS,ioos:station:wmo:42047:1,2007-05-04T20:09:00Z,27.8966,-93.5973,4.0,2.019430613,147.3332495,4.61,'11111222,11111222,11111222' 
TABS,ioos:station:wmo:42047:1,2007-05-04T20:39:00Z,27.8966,-93.5973,4.0,2.123228674,156.6953744,5.73,'11111222,11111222,11111222' 
TABS,ioos:station:wmo:42047:1,2007-05-04T21:09:00Z,27.8966,-93.5973,4.0,2.39585058,159.220294,5.28,'11111222,11111222,11111222' 
TABS,ioos:station:wmo:42047:1,2007-05-04T21:39:00Z,27.8966,-93.5973,4.0,2.462600252,159.0629741,5.37,'11111222,11111222,11111222' 
TABS,ioos:station:wmo:42047:1,2007-05-04T22:09:00Z,27.8966,-93.5973,4.0,3.006476343,151.8156867,6.38,'11111222,11111222,11111222' 
TABS,ioos:station:wmo:42047:1,2007-05-04T22:39:00Z,27.8966,-93.5973,4.0,3.081460693,154.0173052,5.87,'11111222,11111222,11111222' 
TABS,ioos:station:wmo:42047:1,2007-05-04T23:09:00Z,27.8966,-93.5973,4.0,3.434603325,153.3606177,6.7,'11111222,11111222,11111222' 
TABS,ioos:station:wmo:42047:1,2007-05-04T23:39:00Z,27.8966,-93.5973,4.0,3.458236545,151.8790601,6.67,'11111222,11111222,11111222' 
TABS,ioos:station:wmo:42047:1,2007-05-05T00:09:00Z,27.8966,-93.5973,4.0,3.910191811,149.2375629,7.09,'11111222,11111222,11111222' 
TABS,ioos:station:wmo:42047:1,2007-05-05T00:39:00Z,27.8966,-93.5973,4.0,3.773857443,157.2402544,6.99,'11111222,11111222,11111222' 
TABS,ioos:station:wmo:42047:1,2007-05-05T01:09:00Z,27.8966,-93.5973,4.0,3.868462227,157.3462193,7.12,'11111222,11111222,11111222' 